Weather in Smol'ki

Russia / Nizhny Novgorod Oblast'     56°40′06″N   43°38′17″E
temp.,
°C
wind,
m/s
gust,
m/s
humid.,
%
clouds,
%
prec.,
mm/h
press.,
hPa
HPBL,
m
12 april, mon
mon1200:00+1se00939 0.0 103510
03:000ene229410 0.0 103613
06:00+2ene2698100 0.0 1037100
09:00+6e3895100 0.0 1038283
12:00+9e5890100 0.0 1037457
15:00+9e4887100 0.0 1037506
18:00+7e51092100 0.0 1036460
21:00+6ese51495100 0.0 1035486
13 april, tue
tue1300:00+5se51295100 0.0 1034370
03:00+4ese41097100 0.0 1033231
06:00+4se399897 0.0 1033171
09:00+10sse4782100 0.0 1032258
12:00+15sse585796 0.0 1030655
15:00+17s474675 0.0 10291258
18:00+14sse376299 0.0 1028105
21:00+10sse377458 0.0 1028109
14 april, wed
wed1400:00+8sse387567 0.0 1028128
03:00+7sse3478100 0.0 102853
06:00+7sse3578100 0.0 102883
09:00+12sse366187 0.0 1027278
12:00+16sse47475 0.0 1026791
15:00+18sse46380 0.0 10241268
18:00+14se385150 0.0 1023161
21:00+10sse376470 0.0 1023104
15 april, thu
thu1500:00+8sse227117 0.0 102227
03:00+7s22755 0.0 102220
06:00+7s22751 0.0 102128
09:00+13s23550 0.0 1021286
12:00+17s224311 0.0 1020857
15:00+18s21365 0.0 10191406
18:00+15sse114728 0.0 101811
21:00+11ne1155100 0.0 101810
16 april, fri
fri1600:00+9ne116483 0.0 101810
03:00+7nne238130 0.0 101851
06:00+6nne3694100 0.0 1019161
09:00+10nne4574100 0.0 1019470
12:00+14nne4560100 0.0 1019979
15:00+11nne566789 0.0 1021956
18:00+9nne497188 0.0 1022779
21:00+7nne412690 0.0 1023505